Time,TemperatureF,DewpointF,PressureIn,WindDirection,WindDirectionDegrees,WindSpeedMPH,WindSpeedGustMPH,Humidity,HourlyPrecipIn,Conditions,Clouds,dailyrainin,SoftwareType,DateUTC
2013-02-04 00:00:00,23.0,-4.0,29.92,WSW,254,0.0,0.0,30,0.00,,,0.00,weatherlink.com 1.10,2013-02-04 07:00:00,
2013-02-04 00:16:00,22.5,-3.0,29.92,WSW,254,0.0,0.0,33,0.00,,,0.00,weatherlink.com 1.10,2013-02-04 07:16:00,
2013-02-04 00:31:00,21.1,-2.0,29.93,SE,128,0.0,0.0,36,0.00,,,0.00,weatherlink.com 1.10,2013-02-04 07:31:00,
2013-02-04 00:46:00,21.4,-4.0,29.92,NNW,334,0.0,0.0,33,0.00,,,0.00,weatherlink.com 1.10,2013-02-04 07:46:00,
2013-02-04 01:01:00,22.6,-3.0,29.93,NNW,334,0.0,1.0,32,0.00,,,0.00,weatherlink.com 1.10,2013-02-04 08:01:00,
2013-02-04 01:16:00,22.7,-3.0,29.93,West,272,1.0,2.0,33,0.00,,,0.00,weatherlink.com 1.10,2013-02-04 08:16:00,
2013-02-04 01:31:00,22.5,-3.0,29.93,West,273,0.0,0.0,33,0.00,,,0.00,weatherlink.com 1.10,2013-02-04 08:31:00,
2013-02-04 01:46:00,21.6,-3.0,29.92,West,273,0.0,0.0,34,0.00,,,0.00,weatherlink.com 1.10,2013-02-04 08:46:00,
2013-02-04 02:01:00,20.9,-3.0,29.93,West,273,0.0,0.0,35,0.00,,,0.00,weatherlink.com 1.10,2013-02-04 09:01:00,
2013-02-04 02:16:00,21.5,-3.0,29.92,West,272,0.0,1.0,34,0.00,,,0.00,weatherlink.com 1.10,2013-02-04 09:16:00,
2013-02-04 02:32:00,21.0,-3.0,29.92,West,272,0.0,0.0,35,0.00,,,0.00,weatherlink.com 1.10,2013-02-04 09:32:00,
2013-02-04 02:46:00,21.4,-4.0,29.92,South,181,0.0,2.0,33,0.00,,,0.00,weatherlink.com 1.10,2013-02-04 09:46:00,
2013-02-04 03:01:00,22.7,-3.0,29.92,South,188,0.0,3.0,32,0.00,,,0.00,weatherlink.com 1.10,2013-02-04 10:01:00,
2013-02-04 03:17:00,22.7,-4.0,29.93,SSW,192,0.0,0.0,31,0.00,,,0.00,weatherlink.com 1.10,2013-02-04 10:17:00,
2013-02-04 03:32:00,22.7,-5.0,29.93,SSW,193,0.0,0.0,29,0.00,,,0.00,weatherlink.com 1.10,2013-02-04 10:32:00,
2013-02-04 03:47:00,20.6,-4.0,29.93,ESE,106,0.0,2.0,33,0.00,,,0.00,weatherlink.com 1.10,2013-02-04 10:47:00,
2013-02-04 04:02:00,19.0,-6.0,29.93,ESE,106,0.0,0.0,32,0.00,,,0.00,weatherlink.com 1.10,2013-02-04 11:02:00,
2013-02-04 04:17:00,19.2,-5.0,29.93,ESE,106,0.0,0.0,34,0.00,,,0.00,weatherlink.com 1.10,2013-02-04 11:17:00,
2013-02-04 04:32:00,17.8,-5.0,29.93,South,176,1.0,3.0,37,0.00,,,0.00,weatherlink.com 1.10,2013-02-04 11:32:00,
2013-02-04 04:47:00,17.9,-5.0,29.93,South,177,0.0,3.0,36,0.00,,,0.00,weatherlink.com 1.10,2013-02-04 11:47:00,
2013-02-04 05:04:00,18.4,-5.0,29.93,South,177,0.0,0.0,35,0.00,,,0.00,weatherlink.com 1.10,2013-02-04 12:04:00,
2013-02-04 05:17:00,18.9,-5.0,29.93,South,178,0.0,2.0,34,0.00,,,0.00,weatherlink.com 1.10,2013-02-04 12:17:00,
2013-02-04 05:32:00,20.9,-5.0,29.93,SW,221,0.0,2.0,32,0.00,,,0.00,weatherlink.com 1.10,2013-02-04 12:32:00,
2013-02-04 05:47:00,22.6,-4.0,29.94,WSW,255,0.0,1.0,31,0.00,,,0.00,weatherlink.com 1.10,2013-02-04 12:47:00,
2013-02-04 06:04:00,22.7,-4.0,29.93,WSW,250,0.0,0.0,31,0.00,,,0.00,weatherlink.com 1.10,2013-02-04 13:04:00,
2013-02-04 06:18:00,21.1,-4.0,29.94,WSW,250,0.0,0.0,33,0.00,,,0.00,weatherlink.com 1.10,2013-02-04 13:18:00,
2013-02-04 06:33:00,19.0,-5.0,29.94,WSW,254,0.0,2.0,35,0.00,,,0.00,weatherlink.com 1.10,2013-02-04 13:33:00,
2013-02-04 06:48:00,19.7,-5.0,29.94,WSW,252,0.0,2.0,34,0.00,,,0.00,weatherlink.com 1.10,2013-02-04 13:48:00,
2013-02-04 07:04:00,16.9,-5.0,29.95,WSW,256,0.0,0.0,37,0.00,,,0.00,weatherlink.com 1.10,2013-02-04 14:04:00,
2013-02-04 07:18:00,16.6,-5.0,29.95,WSW,257,0.0,0.0,39,0.00,,,0.00,weatherlink.com 1.10,2013-02-04 14:18:00,
2013-02-04 07:33:00,20.4,-3.0,29.96,WSW,249,0.0,5.0,36,0.00,,,0.00,weatherlink.com 1.10,2013-02-04 14:33:00,
2013-02-04 07:49:00,24.2,-3.0,29.96,WSW,241,0.0,4.0,30,0.00,,,0.00,weatherlink.com 1.10,2013-02-04 14:49:00,
2013-02-04 08:04:00,25.1,-1.0,29.96,West,260,0.0,5.0,32,0.00,,,0.00,weatherlink.com 1.10,2013-02-04 15:04:00,
2013-02-04 08:19:00,24.4,-2.0,29.97,West,261,0.0,0.0,32,0.00,,,0.00,weatherlink.com 1.10,2013-02-04 15:19:00,
2013-02-04 08:34:00,25.9,-1.0,29.97,NW,306,0.0,3.0,31,0.00,,,0.00,weatherlink.com 1.10,2013-02-04 15:34:00,
2013-02-04 08:49:00,28.7,-1.0,29.97,WSW,247,2.0,12.0,28,0.00,,,0.00,weatherlink.com 1.10,2013-02-04 15:49:00,
2013-02-04 09:04:00,29.7,-1.0,29.96,West,259,2.0,4.0,27,0.00,,,0.00,weatherlink.com 1.10,2013-02-04 16:04:00,
2013-02-04 09:19:00,32.3,-2.0,29.96,West,259,0.0,8.0,23,0.00,,,0.00,weatherlink.com 1.10,2013-02-04 16:19:00,
2013-02-04 09:34:00,33.9,0.0,29.96,SW,225,0.0,8.0,23,0.00,,,0.00,weatherlink.com 1.10,2013-02-04 16:34:00,
2013-02-04 09:49:00,34.7,0.0,29.97,WSW,247,2.0,8.0,23,0.00,,,0.00,weatherlink.com 1.10,2013-02-04 16:49:00,
2013-02-04 10:04:00,34.5,2.0,29.97,SSW,203,6.0,10.0,25,0.00,,,0.00,weatherlink.com 1.10,2013-02-04 17:04:00,
2013-02-04 10:19:00,35.9,2.0,29.97,SSW,208,0.0,10.0,24,0.00,,,0.00,weatherlink.com 1.10,2013-02-04 17:19:00,
2013-02-04 10:35:00,37.0,2.0,29.97,South,188,0.0,13.0,23,0.00,,,0.00,weatherlink.com 1.10,2013-02-04 17:35:00,
2013-02-04 10:49:00,37.0,1.0,29.97,South,190,2.0,12.0,22,0.00,,,0.00,weatherlink.com 1.10,2013-02-04 17:49:00,
2013-02-04 11:05:00,37.9,3.0,29.97,WSW,249,1.0,13.0,23,0.00,,,0.00,weatherlink.com 1.10,2013-02-04 18:05:00,
2013-02-04 11:20:00,37.6,2.0,29.96,SW,215,1.0,13.0,22,0.00,,,0.00,weatherlink.com 1.10,2013-02-04 18:20:00,
2013-02-04 11:39:00,38.0,4.0,29.95,South,183,2.0,13.0,24,0.00,,,0.00,weatherlink.com 1.10,2013-02-04 18:39:00,
2013-02-04 11:50:00,38.7,4.0,29.95,SSW,206,1.0,11.0,23,0.00,,,0.00,weatherlink.com 1.10,2013-02-04 18:50:00,
2013-02-04 12:05:00,39.0,4.0,29.95,South,184,0.0,13.0,23,0.00,,,0.00,weatherlink.com 1.10,2013-02-04 19:05:00,
2013-02-04 12:22:00,39.7,4.0,29.94,SSW,202,6.0,11.0,22,0.00,,,0.00,weatherlink.com 1.10,2013-02-04 19:22:00,
2013-02-04 12:35:00,40.1,3.0,29.93,South,180,8.0,9.0,21,0.00,,,0.00,weatherlink.com 1.10,2013-02-04 19:35:00,
2013-02-04 12:50:00,38.6,2.0,29.93,SSE,163,0.0,9.0,21,0.00,,,0.00,weatherlink.com 1.10,2013-02-04 19:50:00,
2013-02-04 13:05:00,37.7,6.0,29.93,SSW,196,0.0,14.0,26,0.00,,,0.00,weatherlink.com 1.10,2013-02-04 20:05:00,
2013-02-04 13:20:00,39.4,2.0,29.92,WSW,247,0.0,4.0,21,0.00,,,0.00,weatherlink.com 1.10,2013-02-04 20:20:00,
2013-02-04 13:35:00,40.0,6.0,29.92,SW,221,0.0,4.0,24,0.00,,,0.00,weatherlink.com 1.10,2013-02-04 20:35:00,
2013-02-04 13:50:00,41.7,4.0,29.92,SSW,207,1.0,1.0,21,0.00,,,0.00,weatherlink.com 1.10,2013-02-04 20:50:00,
2013-02-04 14:06:00,42.0,5.0,29.91,WSW,252,0.0,8.0,21,0.00,,,0.00,weatherlink.com 1.10,2013-02-04 21:06:00,
2013-02-04 14:21:00,42.7,4.0,29.90,SW,229,1.0,9.0,20,0.00,,,0.00,weatherlink.com 1.10,2013-02-04 21:21:00,
2013-02-04 14:36:00,42.7,5.0,29.90,WSW,253,0.0,7.0,21,0.00,,,0.00,weatherlink.com 1.10,2013-02-04 21:36:00,
2013-02-04 14:51:00,42.0,3.0,29.89,West,262,4.0,9.0,20,0.00,,,0.00,weatherlink.com 1.10,2013-02-04 21:51:00,
2013-02-04 15:07:00,41.3,3.0,29.90,West,265,0.0,11.0,20,0.00,,,0.00,weatherlink.com 1.10,2013-02-04 22:07:00,
2013-02-04 15:21:00,40.8,4.0,29.90,WSW,255,5.0,10.0,21,0.00,,,0.00,weatherlink.com 1.10,2013-02-04 22:21:00,
2013-02-04 15:37:00,39.3,3.0,29.91,West,267,6.0,11.0,22,0.00,,,0.00,weatherlink.com 1.10,2013-02-04 22:37:00,
2013-02-04 15:52:00,39.0,3.0,29.91,WSW,253,2.0,8.0,22,0.00,,,0.00,weatherlink.com 1.10,2013-02-04 22:52:00,
2013-02-04 16:06:00,37.8,2.0,29.92,West,275,2.0,8.0,22,0.00,,,0.00,weatherlink.com 1.10,2013-02-04 23:06:00,
2013-02-04 16:21:00,37.0,2.0,29.91,NW,315,2.0,5.0,23,0.00,,,0.00,weatherlink.com 1.10,2013-02-04 23:21:00,
2013-02-04 16:51:00,35.7,1.0,29.92,West,265,2.0,8.0,23,0.00,,,0.00,weatherlink.com 1.10,2013-02-04 23:51:00,
2013-02-04 17:07:00,34.7,1.0,29.93,WSW,250,4.0,15.0,24,0.00,,,0.00,weatherlink.com 1.10,2013-02-05 00:07:00,
2013-02-04 17:22:00,34.0,2.0,29.93,West,265,3.0,9.0,26,0.00,,,0.00,weatherlink.com 1.10,2013-02-05 00:22:00,
2013-02-04 17:38:00,33.2,2.0,29.94,West,261,0.0,14.0,26,0.00,,,0.00,weatherlink.com 1.10,2013-02-05 00:38:00,
2013-02-04 17:52:00,31.8,3.0,29.95,West,281,1.0,9.0,29,0.00,,,0.00,weatherlink.com 1.10,2013-02-05 00:52:00,
2013-02-04 18:07:00,31.4,3.0,29.96,WNW,296,0.0,9.0,30,0.00,,,0.00,weatherlink.com 1.10,2013-02-05 01:07:00,
2013-02-04 18:22:00,31.0,4.0,29.96,West,261,2.0,12.0,32,0.00,,,0.00,weatherlink.com 1.10,2013-02-05 01:22:00,
2013-02-04 18:37:00,30.0,4.0,29.97,WSW,256,2.0,16.0,33,0.00,,,0.00,weatherlink.com 1.10,2013-02-05 01:37:00,
2013-02-04 18:52:00,30.6,6.0,29.97,West,275,0.0,15.0,35,0.00,,,0.00,weatherlink.com 1.10,2013-02-05 01:52:00,
2013-02-04 19:07:00,30.6,6.0,29.97,WSW,256,2.0,12.0,35,0.00,,,0.00,weatherlink.com 1.10,2013-02-05 02:07:00,
2013-02-04 19:22:00,30.3,6.0,29.98,WSW,248,1.0,12.0,35,0.00,,,0.00,weatherlink.com 1.10,2013-02-05 02:22:00,
2013-02-04 19:37:00,30.4,6.0,29.99,West,261,3.0,13.0,36,0.00,,,0.00,weatherlink.com 1.10,2013-02-05 02:37:00,
2013-02-04 19:55:00,30.1,5.0,29.97,SW,221,4.0,11.0,35,0.00,,,0.00,weatherlink.com 1.10,2013-02-05 02:55:00,
2013-02-04 20:08:00,30.0,6.0,29.94,SW,223,9.0,20.0,37,0.00,,,0.00,weatherlink.com 1.10,2013-02-05 03:08:00,
2013-02-04 20:38:00,28.9,6.0,29.96,NNE,12,0.0,2.0,37,0.00,,,0.00,weatherlink.com 1.10,2013-02-05 03:38:00,
2013-02-04 20:53:00,28.8,5.0,29.95,West,262,0.0,14.0,36,0.00,,,0.00,weatherlink.com 1.10,2013-02-05 03:53:00,
2013-02-04 21:08:00,28.3,4.0,29.96,WSW,254,0.0,6.0,36,0.00,,,0.00,weatherlink.com 1.10,2013-02-05 04:08:00,
2013-02-04 21:23:00,27.5,5.0,29.96,WSW,241,3.0,6.0,39,0.00,,,0.00,weatherlink.com 1.10,2013-02-05 04:23:00,
2013-02-04 21:38:00,28.0,7.0,29.95,WSW,244,2.0,9.0,42,0.00,,,0.00,weatherlink.com 1.10,2013-02-05 04:38:00,
2013-02-04 21:53:00,28.8,8.0,29.94,WNW,292,0.0,13.0,41,0.00,,,0.00,weatherlink.com 1.10,2013-02-05 04:53:00,
2013-02-04 22:08:00,29.8,9.0,29.91,WNW,287,4.0,14.0,41,0.00,,,0.00,weatherlink.com 1.10,2013-02-05 05:08:00,
2013-02-04 22:23:00,30.4,10.0,29.92,West,274,0.0,9.0,42,0.00,,,0.00,weatherlink.com 1.10,2013-02-05 05:23:00,
2013-02-04 22:38:00,28.4,8.0,29.96,East,86,0.0,10.0,43,0.00,,,0.00,weatherlink.com 1.10,2013-02-05 05:38:00,
2013-02-04 22:53:00,26.7,9.0,29.95,SSE,157,0.0,5.0,47,0.00,,,0.00,weatherlink.com 1.10,2013-02-05 05:53:00,
2013-02-04 23:09:00,26.8,8.0,29.94,SSE,155,0.0,0.0,46,0.00,,,0.00,weatherlink.com 1.10,2013-02-05 06:09:00,
2013-02-04 23:24:00,27.1,8.0,29.94,WSW,257,3.0,3.0,45,0.00,,,0.00,weatherlink.com 1.10,2013-02-05 06:24:00,
2013-02-04 23:39:00,28.1,8.0,29.95,South,189,0.0,5.0,42,0.00,,,0.00,weatherlink.com 1.10,2013-02-05 06:39:00,
2013-02-04 23:54:00,28.6,8.0,29.95,South,176,0.0,6.0,42,0.00,,,0.00,weatherlink.com 1.10,2013-02-05 06:54:00,